Location: Beekmeers
(50.8953°N, 3.6968°E)
Time: 15:00:29
(UTC+00:00)

Meteor 1-4 Rocket - Pass Details

Date: 23 May 2024
Orbit: 358 x 378 km, 81.2° (Epoch: 19 June)

Event Time Altitude Azimuth Distance (km) Brightness Sun altitude
Exits shadow 00:59:36 29° 133° (SE) 702 3.1 -16.4°
Maximum altitude 01:00:24 35° 96° (E) 607 3.1 -16.4°
Drops below altitude 10° 01:03:06 10° 28° (NNE) 1,355 6.1 -16.3°
Enters shadow 01:55:42 -73° 193° (SSW) 12,556 9.6 -12.6°
